Weather History for KITR - March, 2013

Change the Weather History Date:

Sunday, March 17, 2013

  Actual Average Record
Temperature  
Mean Temperature 41 °F 40 °F  
Max Temperature 57 °F 55 °F 83 °F (2012)
Min Temperature 24 °F 25 °F -6 °F (1906)
Degree Days  
Heating Degree Days 26    
Moisture  
Dew Point 23 °F    
Average Humidity 55    
Maximum Humidity 84    
Minimum Humidity 27    
Precipitation  
Precipitation 0.00 in 0.03 in 0.27 in (1951)
Month to date precipitation 0.18 0.46  
Year to date precipitation 0.67 1.26  
Sea Level Pressure  
Sea Level Pressure 29.72 in    
Wind  
Wind Speed 16 mph (SSE)    
Max Wind Speed 30 mph    
Max Gust Speed 39 mph    
Visibility 10 miles    
Events      
T = Trace of Precipitation, MM = Missing Value Source: NWS Daily Summary

Daily Weather History Graph

Daily Weather History Graph

Search for Another Location

Airport or City:

Trip Planner

Search our weather history database for the weather conditions in past years. The results will help you decide how hot, cold, wet, or windy it might be!

Date:

Astronomy

Mar. 17, 2013 Rise Set
Actual Time 6:56 AM MDT 6:58 PM MDT
Civil Twilight 6:30 AM MDT 7:25 PM MDT
Nautical Twilight 5:59 AM MDT 7:56 PM MDT
Astronomical Twilight 5:27 AM MDT 8:27 PM MDT
Moon 10:13 AM MDT (3/17) 12:06 AM MDT (3/17)
Length of Visible Light 12h 54m
Length of Day
12h 01m
Waxing Crescent, 32% of the Moon is Illuminated
Mar 17
Waxing Crescent
Mar 19
First Quarter
Mar 27
Full
Apr 2
Last Quarter
Apr 10
New

Hourly Weather History & Observations

Time (MDT) Temp. Windchill Dew Point Humidity Pressure Visibility Wind Dir Wind Speed Gust Speed Precip Events Conditions
12:53 AM 30.0 °F 20.5 °F 21.9 °F 72% 29.90 in 10.0 mi South 11.5 mph - N/A   Clear
1:53 AM 28.0 °F 18.1 °F 21.0 °F 75% 29.91 in 10.0 mi SE 11.5 mph - N/A   Clear
2:53 AM 28.9 °F 19.2 °F 21.9 °F 75% 29.88 in 10.0 mi South 11.5 mph - N/A   Clear
4:53 AM 26.1 °F 15.0 °F 21.0 °F 81% 29.83 in 10.0 mi South 12.7 mph - N/A   Clear
5:53 AM 24.1 °F 13.1 °F 19.9 °F 84% 29.84 in 10.0 mi South 11.5 mph - N/A   Clear
6:33 AM 24.8 °F 12.4 °F 19.4 °F 80% 29.82 in 10.0 mi South 15.0 mph - N/A   Partly Cloudy
6:53 AM 25.0 °F 12.6 °F 19.9 °F 81% 29.84 in 10.0 mi South 15.0 mph - N/A   Partly Cloudy
7:53 AM 28.0 °F 16.1 °F 21.0 °F 75% 29.81 in 10.0 mi South 16.1 mph - N/A   Clear
8:53 AM 36.0 °F 24.2 °F 23.0 °F 59% 29.76 in 10.0 mi South 24.2 mph 32.2 mph N/A   Clear
9:53 AM 39.9 °F 30.0 °F 21.9 °F 49% 29.77 in 10.0 mi South 21.9 mph 29.9 mph N/A   Clear
10:53 AM 46.0 °F 37.0 °F 21.9 °F 39% 29.71 in 10.0 mi South 27.6 mph 34.5 mph N/A   Clear
11:53 AM 51.1 °F - 21.9 °F 32% 29.66 in 10.0 mi South 29.9 mph 39.1 mph N/A   Clear
12:53 PM 51.1 °F - 24.1 °F 35% 29.62 in 10.0 mi SSE 26.5 mph 34.5 mph N/A   Clear
1:53 PM 53.1 °F - 25.0 °F 34% 29.59 in 10.0 mi South 25.3 mph - N/A   Scattered Clouds
2:53 PM 52.0 °F - 26.1 °F 37% 29.55 in 10.0 mi South 21.9 mph 27.6 mph N/A   Partly Cloudy
3:53 PM 55.9 °F - 27.0 °F 33% 29.52 in 10.0 mi South 21.9 mph 26.5 mph N/A   Clear
4:53 PM 54.0 °F - 28.0 °F 37% 29.50 in 10.0 mi South 19.6 mph 32.2 mph N/A   Partly Cloudy
5:53 PM 53.1 °F - 28.0 °F 38% 29.52 in 10.0 mi SSE 21.9 mph 28.8 mph N/A   Clear
6:53 PM 46.9 °F - 28.9 °F 50% 29.57 in 10.0 mi ESE 10.4 mph - N/A   Clear
7:53 PM 44.1 °F 39.5 °F 28.9 °F 55% 29.65 in 10.0 mi ENE 8.1 mph - N/A   Partly Cloudy
8:53 PM 39.9 °F 35.1 °F 28.0 °F 63% 29.68 in 10.0 mi North 6.9 mph - N/A   Mostly Cloudy
9:53 PM 46.0 °F 38.5 °F 30.9 °F 56% 29.70 in 10.0 mi North 19.6 mph 25.3 mph N/A   Mostly Cloudy
10:53 PM 42.1 °F 34.2 °F 10.0 °F 27% 29.78 in 10.0 mi NNW 16.1 mph - N/A   Overcast
11:53 PM 37.0 °F 26.2 °F 21.0 °F 52% 29.81 in 10.0 mi North 21.9 mph 31.1 mph N/A   Mostly Cloudy